Weather History for PAHO - June, 2013

Change the Weather History Date:

Friday, June 28, 2013

  Actual Average Record
Temperature  
Mean Temperature 58 °F -  
Max Temperature 64 °F 58 °F 75 °F (2001)
Min Temperature 53 °F 43 °F -3 °F (1971)
Degree Days  
Heating Degree Days 8    
Growing Degree Days 8 (Base 50)    
Moisture  
Dew Point 48 °F    
Average Humidity 71    
Maximum Humidity 86    
Minimum Humidity 60    
Precipitation  
Precipitation 0.00 in - - ()
Sea Level Pressure  
Sea Level Pressure 30.17 in    
Wind  
Wind Speed 4 mph (WSW)    
Max Wind Speed 8 mph    
Max Gust Speed -    
Visibility 10 miles    
Events      
Averages and records for this station are not official NWS values.
T = Trace of Precipitation, MM = Missing Value Source: NWS Daily Summary

Daily Weather History Graph

Daily Weather History Graph

Search for Another Location

Airport or City:

Trip Planner

Search our weather history database for the weather conditions in past years. The results will help you decide how hot, cold, wet, or windy it might be!

Date:

Astronomy

Jun. 28, 2013 Rise Set
Actual Time 4:49 AM AKDT 11:28 PM AKDT
Civil Twilight 3:15 AM AKDT 1:02 AM AKDT
Nautical Twilight Sun does not set Sun does not set
Astronomical Twilight Sun does not set Sun does not set
Moon 12:49 AM AKDT (6/28) 12:59 PM AKDT (6/28)
Length of Visible Light 21h 46m
Length of Day
18h 38m
Waning Gibbous, 65% of the Moon is Illuminated
Jun 28
Waning Gibbous
Jun 29
Last Quarter
Jul 7
New
Jul 15
First Quarter
Jul 22
Full

Hourly Weather History & Observations

Time (AKDT) Temp. Dew Point Humidity Pressure Visibility Wind Dir Wind Speed Gust Speed Precip Events Conditions
12:53 AM 53.1 °F 48.0 °F 83% 30.12 in 10.0 mi North - - N/A   Mostly Cloudy
1:53 AM 55.0 °F 50.0 °F 83% 30.13 in 10.0 mi Calm Calm - N/A   Overcast
2:53 AM 53.1 °F 48.9 °F 86% 30.14 in 10.0 mi Calm Calm - N/A   Overcast
3:53 AM 55.9 °F 50.0 °F 80% 30.14 in 10.0 mi West 3.5 mph - N/A   Overcast
4:53 AM 57.0 °F 48.0 °F 72% 30.14 in 10.0 mi West 8.1 mph - N/A   Overcast
5:53 AM 55.9 °F 46.9 °F 72% 30.15 in 10.0 mi West 3.5 mph - N/A   Overcast
6:53 AM 57.0 °F 48.0 °F 72% 30.16 in 10.0 mi WSW 3.5 mph - N/A   Overcast
7:53 AM 57.0 °F 48.0 °F 72% 30.17 in 10.0 mi West 5.8 mph - N/A   Overcast
8:53 AM 57.0 °F 46.9 °F 69% 30.18 in 10.0 mi West 3.5 mph - N/A   Overcast
9:53 AM 57.9 °F 48.0 °F 70% 30.18 in 10.0 mi West 4.6 mph - N/A   Overcast
10:53 AM 55.9 °F 48.0 °F 75% 30.19 in 10.0 mi West 5.8 mph - N/A   Overcast
11:53 AM 60.1 °F 48.0 °F 64% 30.18 in 10.0 mi West 8.1 mph - N/A   Overcast
12:53 PM 61.0 °F 46.9 °F 60% 30.19 in 10.0 mi WSW 8.1 mph - N/A   Overcast
1:53 PM 60.1 °F 48.9 °F 67% 30.20 in 10.0 mi West 6.9 mph - N/A   Overcast
2:53 PM 59.0 °F 48.0 °F 67% 30.19 in 10.0 mi West 8.1 mph - N/A   Overcast
3:53 PM 62.1 °F 48.0 °F 60% 30.19 in 10.0 mi West 5.8 mph - N/A   Overcast
4:53 PM 62.1 °F 48.0 °F 60% 30.19 in 10.0 mi WSW 5.8 mph - N/A   Overcast
5:53 PM 62.1 °F 48.9 °F 62% 30.19 in 10.0 mi West 8.1 mph - N/A   Overcast
6:53 PM 61.0 °F 46.9 °F 60% 30.19 in 10.0 mi West 6.9 mph - N/A   Overcast
7:53 PM 61.0 °F 48.0 °F 62% 30.18 in 10.0 mi Variable 3.5 mph - N/A   Overcast
8:53 PM 59.0 °F 48.9 °F 69% 30.17 in 10.0 mi SE 4.6 mph - N/A   Overcast
9:53 PM 55.0 °F 46.9 °F 74% 30.16 in 10.0 mi South 3.5 mph - N/A   Scattered Clouds
10:53 PM 55.9 °F 48.0 °F 75% 30.16 in 10.0 mi Calm Calm - N/A   Clear
11:53 PM 54.0 °F 48.0 °F 80% 30.16 in 10.0 mi Calm Calm - N/A   Overcast